Weather Roundup
Issued by NWS Springfield, MO

Home | Current Version | Previous Version | Text Only | Print | Product List | Glossary On
Versions: 1 2 3 4 5 6 7 8 9 10 11 12 13 14 15 16 17 18 19 20 21 22 23 24 25 26 27 28 29 30 31 32 33 34 35 36 37 38 39 40 41 42 43 44 45 46 47 48 49 50
000
NZUS99 KSGF 051007
HRRSGF

HOURLY WEATHER
NATIONAL WEATHER SERVICE SPRINGFIELD MO
500 AM CDT SUN JUL 05 2015

......SGF CWA......

CITY           SKY/WX    TMP DP  RH WIND       PRES   REMARKS
SPRINGFIELD    CLEAR     70  68  93 SE9       30.02S
JOPLIN         CLEAR     71  68  90 SE6       30.00R
WEST PLAINS    FOG       70  68  93 CALM      30.07R VSB 1/4
ROLLA          CLEAR     67  66  97 SE7       30.04R FOG
OSAGE BEACH    CLEAR     68  64  88 SE5       30.03R
BRANSON          N/A     68  68 100 CALM      30.05R FOG

......SURROUNDING SGF CWA......

CITY           SKY/WX    TMP DP  RH WIND       PRES   REMARKS
CHANUTE        CLEAR     70  68  93 SE7       29.97S FOG
PARSONS        CLEAR     72  70  93 E3        29.97S
COFFEYVILLE    CLEAR     71  69  93 CALM      29.96R
EMPORIA        CLEAR     69  66  90 S8        29.95F
GROVE OK       MOCLDY    72  72 100 CALM      30.00S FOG
ROGERS AR      CLEAR     70  69  97 SE6       30.04R
SILOAM SPRINGS PTCLDY    70  64  83 SE5         N/A
HARRISON AR    FOG       68  68 100 SE6       30.05R VSB 1/4
NEAR YELLVILLE CLOUDY    70  68  94 CALM      30.02R

......KANSAS AND MISSOURI......

CITY           SKY/WX    TMP DP  RH WIND       PRES   REMARKS
KANSAS CTY INT PTCLDY    68  64  87 SE9       29.97S
DOWNTOWN KC    PTCLDY    72  65  78 SE5       29.97R
COLUMBIA       CLEAR     67  65  93 SE7       30.03R FOG
SEDALIA        CLEAR     68  65  90 SE6       30.01F FOG
ST JOSEPH      PTCLDY    68  64  87 S5        29.96F FOG
ST LOUIS       CLEAR     68  61  78 E3        30.05S HAZE
SPIRIT OF STL  CLEAR     64  63  96 CALM      30.03S FOG
KIRKSVILLE     CLEAR     63  61  93 S5        30.04R FOG
WICHITA        PTCLDY    74  69  85 SE7       29.92F
TOPEKA         PTCLDY    69  65  86 SE6       29.95S
OLATHE         PTCLDY    67  65  93 SE7       29.98R

......TENNESSEE......

CITY           SKY/WX    TMP DP  RH WIND       PRES   REMARKS
MEMPHIS        PTCLDY    71  68  90 SE3       30.06R
NASHVILLE      CLOUDY    69  69 100 NW6       30.04R

......ARKANSAS.......

CITY           SKY/WX    TMP DP  RH WIND       PRES   REMARKS
FAYETTEVILLE   PTCLDY    67  67 100 CALM      30.03S FOG
FT SMITH       CLEAR     73  70  90 NE6       30.00R
LITTLE ROCK    LGT RAIN  72  69  90 E6        30.03S

......OKLAHOMA.......

CITY           SKY/WX    TMP DP  RH WIND       PRES   REMARKS
TULSA          PTCLDY    74  69  85 S9        29.96S
PONCA CITY     MOCLDY    75  70  84 SE6       29.92S
MCALESTER      MOCLDY    71  69  93 SE5       29.99R
OKLAHOMA CITY  MOCLDY    73  71  93 S7        29.95R

......IOWA............

CITY           SKY/WX    TMP DP  RH WIND       PRES   REMARKS
DES MOINES     CLEAR     65  59  81 S8        29.97F
QUAD CITIES    CLEAR     63  58  83 CALM      30.04R

......ILLINOIS........

CITY           SKY/WX    TMP DP  RH WIND       PRES   REMARKS
QUINCY         CLEAR     66  62  87 SE5       30.03F
CHICAGO        CLEAR     60  57  89 CALM      30.06S FOG



USA.gov is the U.S. government's official web portal to all federal, state and local government web resources and services.